LEWIN-WX Weather Reports


Display with metric or nautical units.
time (UTC)temp
F
wind
direction
speed
MPH
gust
MPH
rain 1hr
in
rain 24hr
in
rain mn
in
humidity
%
barometer
mb
20260905135316 70 292 18.0 0.0 0.00 0.00 0.00 64 1011.3
20260905132317 70 298 17.0 0.0 0.00 0.00 0.00 64 1011.3
20260905122317 70 284 15.0 0.0 0.00 0.00 0.00 64 1011.3
20260905115317 70 282 15.0 0.0 0.00 0.00 0.00 64 1011.3
20260905112317 70 290 17.0 0.0 0.00 0.00 0.00 64 1011.3
20260905105316 69 290 17.0 0.0 0.00 0.00 0.00 64 1011.3
20260905102318 68 291 19.0 0.0 0.00 0.00 0.00 64 1011.3
20260905095317 67 291 18.0 0.0 0.00 0.00 0.00 64 1011.3
20260905092317 66 289 17.0 0.0 0.00 0.00 0.00 64 1011.3
20260905085317 65 288 16.0 0.0 0.00 0.00 0.00 64 1011.3
20260905082317 65 289 15.0 0.0 0.00 0.00 0.00 64 1011.3
20260905075317 64 283 13.0 0.0 0.00 0.00 0.00 64 1011.3
20260905072317 64 278 14.0 0.0 0.00 0.00 0.00 64 1011.3
20260905065317 63 275 13.0 0.0 0.00 0.00 0.00 64 1011.3
20260905062317 62 273 11.0 0.0 0.00 0.00 0.00 64 1011.3
20260905055317 62 273 11.0 0.0 0.00 0.00 0.00 64 1011.3
20260905052316 62 272 12.0 0.0 0.00 0.00 0.00 64 1011.3
20260905045319 61 271 12.0 0.0 0.00 0.00 0.00 64 1011.3
20260905042316 61 266 10.0 0.0 0.00 0.00 0.00 64 1011.3
20260905035317 61 262 9.0 0.0 0.00 0.00 0.00 64 1011.3
20260905032316 61 258 10.0 0.0 0.00 0.00 0.00 64 1011.3
20260905025317 61 261 9.0 0.0 0.00 0.00 0.00 64 1011.3
20260905022319 61 269 9.0 0.0 0.00 0.00 0.00 64 1011.3
20260905015317 61 267 10.0 0.0 0.00 0.00 0.00 64 1011.3
20260905012316 62 266 10.0 0.0 0.00 0.00 0.00 64 1011.3
20260905005317 62 272 11.0 0.0 0.00 0.00 0.00 64 1011.3
20260905002316 63 282 13.0 0.0 0.00 0.00 0.00 64 1011.3
20260904235318 63 285 12.0 0.0 0.00 0.00 0.00 64 1011.3
20260904232317 64 278 9.0 0.0 0.00 0.00 0.00 64 1011.3
20260904225317 65 281 10.0 0.0 0.00 0.00 0.00 64 1011.3
20260904222317 67 298 11.0 0.0 0.00 0.00 0.00 67 1010.6
20260904215316 68 299 11.0 0.0 0.00 0.00 0.00 64 1016.3
20260904212316 69 297 13.0 0.0 0.00 0.00 0.00 64 1016.3
20260904205317 70 303 13.0 0.0 0.00 0.00 0.00 64 1016.3
20260904202316 72 314 13.0 0.0 0.00 0.00 0.00 64 1016.3
20260904195316 73 305 10.0 0.0 0.00 0.00 0.00 64 1016.3
20260904192318 73 247 10.0 0.0 0.00 0.00 0.00 64 1016.3
20260904185318 75 217 12.0 0.0 0.00 0.00 0.00 64 1016.3
20260904182317 75 219 11.0 0.0 0.00 0.00 0.00 64 1016.3
20260904175317 75 224 11.0 0.0 0.00 0.00 0.00 64 1016.3
20260904172317 77 233 11.0 0.0 0.00 0.00 0.00 64 1016.3
20260904165317 77 238 11.0 0.0 0.00 0.00 0.00 64 1016.3
20260904162316 78 246 13.0 0.0 0.00 0.00 0.00 64 1016.3
20260904155320 78 244 14.0 0.0 0.00 0.00 0.00 64 1016.3
20260904152317 78 243 14.0 0.0 0.00 0.00 0.00 64 1016.3
20260904145316 78 245 15.0 0.0 0.00 0.00 0.00 64 1016.3
20260904142319 78 250 15.0 0.0 0.00 0.00 0.00 64 1016.3